RH
92 98 97 91 92 89 76 40 33 46 48 33 37 36 27 42 26 27 28 26 26 28 30 32 32 33 33 31 30 32 33 34 40 24 30 30 28 31 29 46 39 43 52 43
98 96 97 92 91 90 34 29 35 42 48 60 64 35 33 28 28 27 28 33 30 29 33 41 34 36 39 36 33 39 34 42 39 30 36 30 31 29 29 37 48 54 74 44
98 96 95 91 91 89 50 30 59 38 36 31 31 34 32 36 30 32 29 32 30 33 35 32 40 40 41 41 37 70 52 34 36 39 28 24 30 25 23 31 54 50 46 34
98 96 95 91 91 89 49 33 43 40 52 44 32 30 30 32 34 29 27 32 30 34 43 37 39 34 40 38 61 42 38 45 39 33 26 24 26 28 26 26 30 50 44 32
98 98 94 90 91 92 36 33 41 36 40 34 34 47 32 29 30 29 30 31 29 28 40 26 34 27 28 31 38 37 38 54 56 51 30 27 34 26 24 25 30 30 30 32
98 98 91 89 91 87 33 39 40 36 59 41 44 40 31 28 34 37 24 28 28 44 31 33 35 36 36 34 38 44 51 59 59 73 50 55 83 47 28 27 27 34 46 33
94 91 92 90 92 90 38 40 34 63 66 49 36 31 30 31 30 36 29 26 45 41 33 35 37 39 39 41 46 43 72 64 86 95 89 92 40 26 26 31 30 26 26 29
92 92 93 91 91 93 42 40 38 56 100 40 36 34 32 35 35 36 38 43 38 35 37 59 79 68 92 72 45 46 47 71 94 99 64 47 37 34 36 42 42 29 38 45
92 93 94 93 91 92 50 51 53 45 85 71 30 37 37 47 50 52 55 50 45 45 68 79 98 67 44 47 51 48 56 70 81 93 98 91 51 32 33 36 56 48 50 57
92 92 93 94 92 91 62 57 70 40 77 38 34 44 45 34 41 47 53 55 65 48 96 99 98 64 44 48 81 90 92 94 97 85 98 65 35 37 37 69 73 58 61 69
92 92 92 95 92 91 72 60 65 56 61 48 42 39 44 42 37 70 54 58 65 80 100 100 88 100 62 57 38 57 69 93 97 90 99 89 36 39 75 55 49 61 70 70
93 92 91 94 92 91 88 48 54 57 50 55 54 53 49 46 34 39 56 45 54 55 76 94 98 100 98 85 72 33 56 52 60 59 57 37 44 68 53 50 60 68 71 71
95 94 92 94 91 91 85 51 55 49 92 59 51 49 52 41 42 40 57 63 41 51 50 82 98 100 80 100 77 71 41 32 62 66 43 39 48 48 51 60 63 66 65 58
97 96 94 94 91 91 93 55 56 52 74 100 69 48 52 50 47 43 43 45 56 53 59 100 100 100 53 96 59 57 47 42 52 60 43 42 44 60 58 54 59 63 52 42
99 98 98 97 89 89 69 60 59 59 63 93 81 54 52 49 51 49 47 51 57 71 99 100 97 76 71 78 83 71 41 46 69 74 51 64 67 65 54 54 56 55 41 37
98 99 98 98 94 91 61 60 59 60 61 94 100 64 58 53 52 54 54 50 53 54 76 95 68 50 66 100 90 46 40 38 40 56 56 73 66 58 55 48 42 38 36 35
98 99 99 99 97 76 72 64 72 81 62 100 100 89 66 59 57 59 58 64 60 64 81 97 88 74 67 100 92 43 41 42 47 53 59 74 69 58 45 43 38 41 33 29
99 99 99 97 96 95 82 71 85 80 66 87 100 99 95 63 90 98 66 85 84 79 72 93 92 71 90 100 56 45 42 45 50 58 68 57 45 42 39 34 32 31 27 26
99 99 98 94 97 99 87 94 88 72 76 94 100 100 100 66 85 92 93 86 100 84 100 98 85 99 98 68 51 51 50 55 61 47 42 42 40 36 32 28 26 28 30 29
99 99 100 100 100 98 96 86 95 98 96 90 100 81 98 64 98 100 99 100 100 100 99 88 100 98 66 55 52 51 51 48 47 53 55 48 45 32 29 29 29 31 34 46
99 100 100 100 98 96 96 100 100 100 100 99 96 97 96 82 95 100 100 100 100 100 98 99 100 87 62 54 57 52 48 44 43 40 37 30 29 30 33 39 46 51 51 56
99 99 97 98 98 100 100 100 100 100 98 99 100 98 83 99 92 99 100 100 100 100 75 100 91 57 52 53 56 51 46 42 35 29 28 29 29 34 47 53 53 52 67 93
96 96 100 99 100 100 100 100 100 100 100 99 100 100 100 99 97 100 100 100 100 80 97 78 59 49 46 49 48 47 39 41 43 29 28 33 37 48 66 73 72 96 74 68
98 100 100 100 100 100 100 100 100 100 100 100 100 100 100 100 100 100 100 98 87 98 95 92 57 52 45 46 50 48 44 83 59 44 44 56 85 84 98 100 99 99 89 80
97 99 100 100 100 100 100 100 100 100 98 100 100 100 89 100 100 100 96 99 95 83 78 67 55 49 46 54 49 44 52 96 78 43 57 100 100 95 83 86 90 85 100 100
81 97 100 100 100 100 100 100 100 93 98 99 95 100 100 100 99 99 100 96 81 77 80 68 51 52 51 50 51 52 48 51 47 45 48 62 94 100 75 80 92 100 100 100
99 99 100 100 100 100 100 100 100 91 100 100 99 100 100 92 96 92 70 86 82 82 70 51 52 51 49 52 56 84 68 58 53 53 55 60 72 92 96 94 67 67 78 100
Wind_Speed
8 11 13 13 10 6 1 3 5 3 2 7 4 5 6 2 8 3 3 3 4 5 4 3 3 5 6 3 5 4 6 3 2 6 4 3 4 4 4 2 2 2 3 7
9 10 12 12 11 7 3 3 5 3 4 4 3 5 6 3 7 3 4 4 1 3 5 4 6 5 5 4 5 8 7 1 3 6 7 4 4 2 2 3 1 8 5 4
8 9 11 12 11 8 4 3 3 4 5 3 9 9 9 7 3 4 4 6 6 8 6 3 7 7 4 2 5 4 3 2 4 6 8 5 6 7 7 8 6 9 11 14
7 9 11 12 12 8 4 2 2 2 7 6 8 9 10 11 6 3 6 4 4 7 4 6 4 6 7 3 3 2 4 2 5 9 11 9 10 12 12 13 13 12 13 15
7 9 11 11 12 9 3 2 3 3 2 5 9 5 10 13 6 8 7 7 7 5 6 2 6 4 2 2 4 1 3 1 4 5 6 7 12 14 16 12 8 13 12 14
6 9 10 12 14 8 1 2 1 3 2 8 8 7 9 10 10 2 3 10 8 10 10 10 9 8 6 4 1 3 3 1 3 4 10 12 7 4 3 5 7 7 10 10
5 8 10 12 13 12 3 2 1 4 4 7 8 8 9 12 6 9 10 7 9 7 9 10 9 10 6 4 4 3 5 2 3 4 7 3 5 7 13 10 9 10 8 9
5 7 10 11 12 12 1 2 3 4 3 5 6 10 13 10 11 13 11 6 7 8 1 2 2 2 4 1 5 4 1 4 2 2 5 14 12 4 6 7 12 13 7 10
4 6 8 9 11 11 2 3 3 3 7 5 10 10 13 11 8 7 5 5 4 2 3 2 2 2 1 5 7 5 5 2 4 3 3 4 3 3 3 6 9 8 6 11
3 5 7 9 10 11 5 3 4 2 4 3 7 6 10 4 9 6 7 7 3 2 2 2 3 3 2 3 3 4 3 2 5 6 5 8 7 4 5 5 4 6 9 5
2 3 6 7 9 10 5 3 4 4 3 5 2 3 7 4 6 6 9 6 2 3 3 3 3 1 4 3 2 5 7 6 4 4 4 6 3 4 3 9 10 4 3 7
1 1 4 6 8 10 6 1 2 4 2 5 4 4 4 5 5 4 9 0 7 6 4 3 2 3 0 0 3 4 5 7 4 8 6 6 7 10 12 6 6 3 5 5
3 2 3 6 7 8 8 2 2 0 3 3 4 4 4 2 4 3 4 2 3 5 4 5 3 3 6 5 6 8 7 11 6 7 7 13 7 12 3 4 2 5 8 10
4 3 2 3 6 7 6 1 2 2 4 5 4 1 3 2 1 1 3 9 5 7 4 3 4 3 8 5 7 8 8 8 10 14 15 13 13 5 0 5 6 5 8 8
6 3 1 3 4 6 2 1 2 3 4 3 3 2 2 0 2 4 5 10 7 4 3 2 4 3 2 2 2 8 10 14 10 10 7 4 7 12 13 11 6 5 6 8
8 6 5 3 5 7 4 4 3 2 4 3 3 3 4 3 4 6 8 7 5 5 5 4 4 6 5 5 5 7 6 9 8 7 1 3 5 8 9 6 4 4 6 9
9 8 7 5 3 5 3 3 4 5 2 2 2 3 3 1 4 2 4 2 3 4 3 4 4 6 4 4 7 8 8 7 2 2 1 1 5 6 2 3 3 4 9 12
11 8 5 4 6 4 3 3 3 6 2 2 3 2 2 5 3 3 3 2 2 4 2 2 3 2 1 5 10 13 9 5 5 3 3 11 1 2 3 4 6 9 11 13
12 11 10 3 1 3 1 3 1 2 3 2 3 7 5 6 2 3 2 2 3 1 2 2 3 4 7 9 10 8 7 5 5 6 4 4 2 2 4 6 9 12 13 13
15 5 3 2 3 6 8 2 2 2 2 1 4 3 4 5 3 3 3 1 3 4 2 3 3 4 9 4 3 5 5 6 5 7 5 3 3 5 7 9 10 11 12 12
2 2 1 1 3 2 1 3 3 2 2 3 3 5 5 2 4 4 1 2 2 3 3 4 3 4 10 10 8 6 6 6 5 3 4 1 3 7 8 9 9 9 10 11
5 4 2 2 2 2 4 3 2 5 6 3 3 2 2 3 1 4 2 3 2 4 6 3 4 4 8 10 11 9 8 8 6 3 1 4 6 8 8 8 10 10 9 7
4 5 4 2 1 2 6 10 4 4 4 4 3 3 3 2 2 3 3 5 3 1 3 5 3 9 8 10 11 10 9 7 2 2 4 7 9 8 6 8 9 7 10 11
2 2 3 3 2 3 3 3 3 3 3 5 4 3 2 2 2 2 3 3 2 4 4 4 3 7 9 8 6 8 8 5 1 5 8 7 5 7 6 6 8 7 10 11
2 1 3 3 2 3 3 3 2 2 3 2 4 3 2 3 3 1 3 4 4 4 2 3 4 7 8 8 7 6 2 2 4 8 7 5 6 7 9 7 7 9 8 10
2 2 3 1 1 2 2 3 3 3 2 2 2 2 2 2 1 3 3 3 4 2 3 2 6 6 5 5 5 4 3 5 8 10 10 8 6 7 11 9 7 8 9 10
3 2 2 2 2 3 2 0 2 2 1 2 1 2 3 2 2 2 2 2 2 4 4 3 5 3 2 4 5 4 5 8 9 10 10 10 7 6 7 10 12 8 7 6
Wind_Direction
13 9 350 352 7 8 242 188 192 74 226 197 215 191 148 86 138 153 105 62 105 155 142 129 99 124 51 59 350 32 40 10 293 31 64 341 338 19 3 326 360 251 313 287
21 10 350 345 354 3 200 211 105 116 243 161 193 153 122 103 163 136 157 126 140 179 141 122 123 113 81 56 6 24 13 77 285 180 161 169 279 88 22 71 280 252 245 261
18 4 344 339 343 334 275 194 117 140 217 305 192 179 168 134 67 98 88 114 144 137 146 118 151 123 126 84 47 19 297 357 307 311 330 321 287 263 263 253 258 276 277 287
7 359 343 337 337 329 272 298 107 61 178 220 205 184 181 162 147 117 171 157 189 155 147 133 140 134 136 140 124 167 332 270 332 301 305 304 294 280 268 262 259 254 277 291
8 356 339 341 339 336 240 193 159 171 118 166 180 147 199 181 129 160 161 182 148 161 150 225 166 151 201 119 164 101 42 91 335 275 296 308 297 279 268 264 275 282 288 296
15 355 343 350 346 326 137 103 61 170 202 179 172 192 166 169 141 41 190 143 138 90 72 65 55 54 57 79 148 132 2 10 355 282 341 321 280 245 181 286 283 256 270 294
23 1 354 357 356 352 346 52 196 122 153 187 186 183 167 156 170 140 118 140 111 93 111 100 68 67 65 94 68 359 132 85 50 298 310 306 55 294 291 276 283 278 298 354
34 8 3 359 2 350 21 119 260 126 114 167 158 161 143 125 129 138 115 64 85 149 96 110 69 115 61 73 47 83 270 129 129 270 293 293 301 70 10 335 302 313 1 12
50 23 8 2 6 356 314 63 314 78 125 221 158 149 161 148 136 134 104 98 110 164 77 102 168 194 338 138 135 55 70 91 249 161 267 265 85 48 344 300 267 50 3 341
56 28 13 6 9 356 321 73 346 267 108 128 169 153 178 164 179 137 140 151 133 260 91 113 188 200 338 205 189 191 131 199 229 225 244 268 303 35 304 262 3 338 347 319
93 33 17 11 6 359 326 74 13 320 75 128 175 140 150 160 187 159 126 141 145 118 113 162 203 188 199 217 269 179 193 185 199 212 251 273 146 209 253 332 314 357 299 285
173 350 2 12 6 358 339 149 55 325 35 76 40 57 15 3 358 127 180 30 149 170 127 163 152 184 81 283 245 176 250 207 241 194 249 312 194 186 254 279 331 336 281 302
205 232 325 360 10 358 345 43 42 111 84 111 179 150 90 130 27 353 152 229 122 173 26 141 161 193 175 177 225 264 276 264 232 279 263 296 303 305 61 95 257 203 244 272
198 223 276 335 2 349 325 315 42 334 74 119 139 115 154 358 227 164 343 113 94 113 137 120 146 187 204 208 260 262 253 285 264 266 290 303 288 51 230 273 258 274 260 286
185 194 216 300 331 333 313 64 51 5 300 145 133 128 113 119 207 163 144 151 152 143 124 129 198 228 229 152 299 256 257 261 255 270 320 275 308 350 309 294 291 262 317 310
177 177 197 241 313 327 237 204 144 29 319 111 149 85 163 161 194 184 187 183 198 208 148 202 247 191 217 189 223 261 292 288 283 289 317 71 328 327 279 311 353 323 322 303
171 184 197 204 314 292 292 356 28 340 291 98 100 193 102 252 149 122 202 128 216 201 216 198 203 204 214 191 232 249 268 279 290 262 213 324 233 262 155 303 316 259 295 311
168 178 172 149 108 101 239 82 4 318 105 31 152 162 191 201 160 168 324 136 244 217 252 98 217 235 302 247 239 247 239 194 171 120 223 261 99 138 217 259 314 318 310 321
167 149 151 101 169 181 135 157 295 37 330 203 157 161 192 163 97 70 117 183 199 101 218 203 225 173 217 234 249 183 183 202 202 216 165 157 212 290 321 326 319 316 314 318
141 141 172 207 215 123 152 86 146 359 329 188 202 143 153 194 166 150 132 153 214 203 189 136 215 248 262 214 226 154 179 209 204 173 187 193 282 323 321 316 316 317 324 319
74 106 90 316 97 116 18 150 166 151 259 204 172 182 143 203 152 161 323 164 161 227 155 223 218 242 212 179 170 162 158 142 140 122 92 62 324 310 306 304 315 311 306 304
94 90 98 76 29 70 175 181 145 199 210 160 151 126 109 110 117 105 181 187 176 222 147 213 240 185 127 165 160 147 143 139 127 112 326 316 306 309 306 298 301 303 310 290
47 45 42 21 38 192 193 185 192 186 160 156 151 99 113 130 79 104 174 187 180 286 195 228 235 119 156 150 148 145 136 103 78 287 308 311 306 319 299 290 290 284 288 288
61 89 89 335 125 13 347 358 66 48 68 104 105 91 103 140 108 129 182 66 207 213 230 220 145 158 147 129 139 157 152 127 275 309 303 294 279 275 268 246 263 269 277 287
75 325 71 51 35 23 6 338 54 29 107 108 101 78 60 73 109 39 111 166 220 231 252 62 112 124 126 133 149 149 158 207 268 300 294 256 258 265 275 272 263 271 268 277
79 47 125 109 94 55 24 28 42 9 26 41 52 94 105 101 90 185 201 199 218 133 107 137 127 136 139 167 184 206 284 305 298 290 284 277 252 252 278 295 287 270 260 268
157 116 40 74 65 77 87 46 110 122 353 82 126 159 74 113 202 217 250 242 44 125 146 116 90 128 203 237 221 225 265 285 286 282 276 272 277 281 276 279 286 271 279 259